Freddy Ramirez

Chief Scout - Leones
2 Jul 2028
Sunday
Process

Personality

Adaptability (1) Ambition (7) Controversy (13) Loyalty (12) Pressure (15) Professionalism (8) Sportsmanship (11) Temperament (3)

Profile

Coaching Style Democratic
License Continental C
Determination 3
Man Management 5
Motivating 3
Discipline 6
Job Satisfaction
100%
Fatigue
0%
Role Chief Scout
Wage 51.6K p/w
Contract 14.03.2029

Performance

Behaviour Good
Training Effectiveness
38%
Player Development
15%
Injury Prevention
50%
Tactical Implementation
25%

Recent Events

Assessed a player 7d ago
Attended a recruitment meeting 7d ago
Assessed a player 7d ago
Assessed a player 7d ago
Assessed a player 7d ago
Assessed a player 7d ago
Assessed a player 7d ago
Assessed a player 14d ago

Currently Monitoring

139
Player Club Status Ability Confidence Watched Last Observed Latest Vote
Tyler Walton Bromley Active 97 / 97 40% 2 26.06.2028 -
Marcus Wyllie Fleetwood Town Active 104 / 74 40% 1 26.06.2028 -
Mezack Afriyie Aduana Stars Active 101 / 100 40% 1 25.06.2028 -
Álvaro López Plaza Colonia Active 110 / 114 40% 1 25.06.2028 -
Alessandro Bolzan Arzignano Active 80 / 119 40% 2 24.06.2028 -
Nahuel Soria Oriental Active 106 / 107 40% 1 24.06.2028 -
Walter Núñez Montevideo City Torque Active 121 / 114 40% 1 23.06.2028 -
Nahuel da Silva Montevideo City Torque Active 101 / 98 40% 1 23.06.2028 -
Salomon Ramirez Atletico Venezuela Active 93 / 94 40% 1 22.06.2028 -
Maclyn Biokpo Jenewari Rivers United Active 120 / 92 40% 1 22.06.2028 -
Jack Vale Sorrento Active 89 / 116 40% 1 20.06.2028 -
Louis Flower Crawley Town Active 83 / 96 40% 1 20.06.2028 -
Emiliano Saliadarre Miramar Misiones Active 119 / 106 40% 1 19.06.2028 -
Tomás Blanco Estudiantes Active 117 / 113 40% 1 19.06.2028 -
Carlos Zepeda Zvezda Active 100 / 82 40% 2 18.06.2028 -
Alexander González Cerro Active 98 / 107 40% 1 18.06.2028 -
Harrison Kudus WAFA Active 123 / 91 40% 2 16.06.2028 -
Salvatore Longo Monopoli Active 95 / 110 40% 1 16.06.2028 -
Lorenzo De Leo Renate Active 106 / 104 40% 1 15.06.2028 -
Alan Cisnero Exeter City Active 94 / 90 40% 1 13.06.2028 -
Enzo González Defensores Active 103 / 101 40% 1 13.06.2028 -
Banou Cissé Real Bamako Active 106 / 108 40% 1 12.06.2028 -
Tobías Dieni Ryazan Active 92 / 93 40% 1 11.06.2028 -
Francisco Galván Deportivo Municipal Active 115 / 105 40% 1 11.06.2028 -
Johnson Amuzu Medeama Active 94 / 111 40% 1 10.06.2028 -
Gianluca Contini Siracusa Active 109 / 95 40% 1 08.06.2028 -
Seb Palmer-Houlden Gillingham Active 107 / 103 40% 1 08.06.2028 -
Andrew Dallas Sambenedettese Active 104 / 88 40% 1 31.05.2028 -
Cristian Barros Cerro Active 120 / 101 40% 2 27.12.2027 -
Lautaro Gordillo Colegiales Active 103 / 104 40% 1 27.12.2027 -
Juan Diego Verdeza Barranquilla Active 87 / 82 51% 1 07.12.2027 -
Brayan Nazarith Bogota Active 94 / 78 44% 1 28.12.2026 -
Alex Vigo Independiente Rivadavia Active 122 / 109 40% 4 29.11.2026 -
Alonso Aceves Monterrey Active 119 / 105 40% 1 29.11.2026 -
Ángel Zapata Tijuana Active 97 / 106 40% 1 28.11.2026 -
Agustín Benítez Defensores Active 109 / 110 40% 1 28.11.2026 -
Juan Ignacio Méndez Instituto Active 127 / 127 40% 3 26.11.2026 -
Pedro Pedraza Pachuca Active 126 / 110 40% 2 26.11.2026 -
Eneko Astigarraga Real Sociedad Active 107 / 95 40% 1 25.11.2026 -
Rômulo Tigres Active 119 / 114 40% 7 24.11.2026 -
Brian Farioli Estudiantes Active 105 / 119 40% 1 23.11.2026 -
Sandi Zajc NK Domzale Active 128 / 121 40% 1 22.11.2026 -
Alan Barrionuevo Tigre Active 117 / 118 40% 2 20.11.2026 -
Santiago García Imotski Active 93 / 81 40% 1 20.11.2026 -
Mauricio Guzmán Tristán Suárez Active 120 / 123 40% 1 18.11.2026 -
Juan Sierra La Equidad Active 114 / 135 40% 3 16.11.2026 -
Emiliano Álvarez Progreso Active 115 / 118 40% 2 16.11.2026 -
Paolo Yrizar Chernomorets Active 109 / 95 40% 1 16.11.2026 -
Ian Pérez Defensores Active 110 / 105 40% 1 14.11.2026 -
Camilo Martinez Cortulua Active 113 / 130 40% 2 13.11.2026 -
Gonzalo Pérez Lanús Active 114 / 109 40% 3 10.11.2026 -
Nicolás Retamar Ferro Carril Oeste Active 124 / 124 40% 1 10.11.2026 -
Damián Adín San Miguel Active 109 / 116 40% 1 07.11.2026 -
Martín Garay Tigre Active 124 / 107 40% 1 06.11.2026 -
Brian Orosco Godoy Cruz Active 120 / 118 40% 2 05.11.2026 -
Renzo Reynaga Patronato Active 123 / 117 40% 1 05.11.2026 -
Vicente Poggi Godoy Cruz Active 122 / 116 40% 4 03.11.2026 -
Bruno Palazzo Nueva Chicago Active 125 / 115 40% 1 02.11.2026 -
Facundo Melillán Güemes Active 106 / 110 40% 1 01.11.2026 -
Brian Calderara Chacarita Juniors Active 122 / 115 40% 3 31.10.2026 -
Matías Machado Racing Active 124 / 101 40% 1 31.10.2026 -
Pedro Ramírez Deportivo Riestra Active 125 / 120 40% 2 30.10.2026 -
Alejo Tabares All Boys Active 128 / 120 40% 2 29.10.2026 -
Elías Pereyra Barracas Central Active 128 / 126 40% 1 29.10.2026 -
Ismael Cortez Gimnasia y Esgrima Active 127 / 109 40% 1 28.10.2026 -
Gonzalo Mottes Chacarita Juniors Active 113 / 105 40% 1 26.10.2026 -
Facundo Waller Huracán Active 115 / 131 40% 1 26.10.2026 -
Daniel Amador Chiapas Active 91 / 110 40% 1 26.10.2026 -
José Barreto Quilmes Active 104 / 100 40% 1 25.10.2026 -
Blas Armoa Gimnasia y Esgrima Active 108 / 121 40% 1 25.10.2026 -
Rodrigo López Pumas UNAM Active 120 / 115 40% 1 23.10.2026 -
Nicolás Mosca Atlanta Active 98 / 105 40% 1 23.10.2026 -
Facundo Miño Deportivo Riestra Active 115 / 118 40% 2 22.10.2026 -
Luciano Cosentino Wanderers Active 118 / 129 40% 1 20.10.2026 -
Santiago Apa All Boys Active 115 / 107 40% 1 20.10.2026 -
Milton Valenzuela Atlas Active 117 / 106 40% 2 17.10.2026 -
Franco Malagueño Colegiales Active 113 / 102 40% 1 17.10.2026 -
Facundo Ardiles Estudiantes Active 110 / 120 40% 2 14.10.2026 -
Ricardo Echeverría Santos Laguna Active 121 / 116 40% 1 13.10.2026 -
Agustín Gallo Tristán Suárez Active 123 / 115 40% 1 13.10.2026 -
Ulises Sánchez Gimnasia y Esgrima Active 122 / 135 40% 1 11.10.2026 -
Juan Velázquez Belgrano Active 108 / 121 40% 1 11.10.2026 -
Alejandro Molina Tristán Suárez Active 109 / 110 40% 1 08.10.2026 -
Santiago Martínez Godoy Cruz Active 117 / 121 40% 1 07.10.2026 -
Esteban Obregón Montevideo City Torque Active 116 / 128 40% 1 07.10.2026 -
Fernando Bersano Madryn Active 122 / 112 40% 1 07.10.2026 -
Matías Contrera Hrvatski Dragovoljac Active 103 / 109 40% 1 06.10.2026 -
Mauro Osores San Martín SJ Active 108 / 119 40% 1 06.10.2026 -
Fernando Miranda Colegiales Active 101 / 96 40% 1 04.10.2026 -
Agustín Dattola Almirante Brown Active 123 / 117 40% 1 01.10.2026 -
Facundo Di Biasi Gimnasia La Plata Active 129 / 123 40% 1 30.09.2026 -
Gonzalo Flores Almirante Brown Active 122 / 110 40% 1 30.09.2026 -
Tomás Castro Ponce Atlanta Active 109 / 120 40% 1 28.09.2026 -
Elias Manoel Tijuana Active 101 / 117 40% 1 22.09.2026 -
Cristopher Rodríguez Estudiantes de Merida Active 113 / 96 40% 2 20.09.2026 -
Lautaro Pertusatti River Plate Active 92 / 96 40% 2 20.09.2026 -
Mauricio Isais Pachuca Active 111 / 118 40% 2 19.09.2026 -
Julián Brea Cobresal Active 108 / 90 40% 1 18.09.2026 -
Pablo Monroy Pumas UNAM Active 127 / 129 40% 4 16.09.2026 -
Sebastián Pereira Union Espanola Active 108 / 102 40% 1 16.09.2026 -
Diego Hernández Aguilas Doradas Active 127 / 115 40% 1 15.09.2026 -
Alejo Cruz Juventud Active 112 / 119 40% 1 15.09.2026 -
Franco González Penarol Active 103 / 124 40% 1 15.09.2026 -
David Morosini Juventud Active 95 / 113 40% 1 13.09.2026 -
Nicolás Fernandez Universidad de Chile Active 105 / 94 40% 3 12.09.2026 -
Abraham Bahachille Carabobo Active 92 / 91 40% 1 11.09.2026 -
Joaquín Trasante Danubio Active 99 / 109 40% 1 11.09.2026 -
Agustín Maidana San Marcos de Arica Active 114 / 96 40% 3 10.09.2026 -
Bruno Jáuregui Union Espanola Active 92 / 97 40% 1 10.09.2026 -
Vicente Durán San Luis Active 93 / 94 40% 1 09.09.2026 -
Raimundo Rebolledo Union La Calera Active 96 / 101 40% 1 08.09.2026 -
Jorge Rodríguez Atlas Active 93 / 108 40% 2 07.09.2026 -
Yolfran Caricote Metropolitanos Active 109 / 97 40% 1 07.09.2026 -
Miguel Brizuela O'Higgins Active 123 / 107 40% 3 06.09.2026 -
Iván Rozas Antofagasta Active 116 / 99 40% 1 06.09.2026 -
Ramiro Ruiz Rodríguez Atlético Tucumán Active 113 / 113 40% 1 06.09.2026 -
Martín Villarroel Santiago Wanderers Active 89 / 91 40% 1 05.09.2026 -
Nahuel Brunet Godoy Cruz Active 112 / 112 40% 2 04.09.2026 -
Alejandro Rincon Llaneros Active 114 / 96 40% 1 04.09.2026 -
Cristhián Rivas Estudiantes de Merida Active 126 / 110 40% 1 01.09.2026 -
Tomás Galván River Plate Active 120 / 137 40% 2 31.08.2026 -
Martín Ormeño Union Espanola Active 95 / 104 40% 1 31.08.2026 -
Juan Camilo Pérez Carabobo Active 124 / 120 40% 1 31.08.2026 -
Bruno Hernández Cerro Largo Active 105 / 106 40% 1 31.08.2026 -
Alexis Gutiérrez Club America Active 126 / 121 40% 2 28.08.2026 -
Enzo Ferrario Audax Italiano Active 89 / 96 40% 1 26.08.2026 -
Yeferson Rincon Atletico Venezuela Active 88 / 111 40% 1 25.08.2026 -
Edgar Zaldívar Atlas Active 107 / 115 40% 1 24.08.2026 -
Delvin Alfonzo Deportivo Tachira Active 110 / 108 40% 1 23.08.2026 -
Carlos Adrián Sánchez Pachuca Active 108 / 104 40% 1 23.08.2026 -
Walter Tandazo Melgar Active 104 / 104 40% 1 20.08.2026 -
Tomás Ángel FC Midtjylland Active 114 / 133 40% 1 19.08.2026 -
Jorge Berlanga Pachuca Active 104 / 118 40% 1 13.08.2026 -
Carlos Faya Deportivo La Guaira Active 109 / 121 40% 2 12.08.2026 -
Santiago Simón Toluca Active 120 / 113 40% 1 11.08.2026 -
Pablo Ortíz Tijuana Active 101 / 103 40% 1 08.08.2026 -
Lucas González Nacional Active 114 / 99 40% 1 07.08.2026 -
Valentín Fascendini Talleres Active 129 / 127 40% 1 05.08.2026 -
Pablo Bennevendo Pumas UNAM Active 109 / 109 40% 1 03.08.2026 -